Location: Unspecified
(0.0000°N, 0.0000°E)
Time: 05:49:34
(UTC+00:00)

KAITUO 1B - Pass Details

Date: 03 July 2020
Orbit: 493 x 515 km, 97.4° (Epoch: 13 August)

Event Time Altitude Azimuth Distance (km) Brightness Sun altitude
Rises 05:33:48 0° 27° (NNE) 2,602 ? -7.0°
Reaches altitude 10° 05:36:02 10° 37° (NE) 1,716 ? -6.5°
Maximum altitude 05:39:22 32° 101° (E) 882 ? -5.7°
Drops below altitude 10° 05:42:41 10° 166° (SSE) 1,712 ? -5.0°
Sets 05:44:55 0° 175° (S) 2,595 ? -4.5°
